Flag for United Kingdom Weather past 2 weeks in Ipswich, England, United Kingdom

Now
45 °F

Partly sunny.


Feels Like: 37 °F
Forecast: N/A
Wind: 17 mph from Northwest

Location: Wattisham

Current Time: Jan 26, 2015 at 2:50:00 PM

Latest Report: Jan 26, 2015 at 1:50 PM


Visibility: N/A

Pressure: 30.15 "Hg

Humidity: 61%

Dew point: 32 °F

Location of IpswichLocation

Historic Weather in Ipswich — Graph

°F

Ipswich temperature yesterday

Maximum temperature yesterday: 43 °F (at 12:50 PM)
Minimum temperature yesterday: 30 °F (at 2:50 AM)
Average temperature yesterday: 38 °F

Past Weeks' High & Low Weather Summary

 TemperatureHumidityPressure
High52 °F (Jan 13, 12:50 AM)100% (Jan 12, 11:50 PM)30.42 "Hg (Jan 12, 11:50 PM)
Low25 °F (Jan 20, 5:50 AM)57% (Jan 15, 7:50 PM)29.12 "Hg (Jan 15, 3:50 AM)
Average38 °F85%29.87 "Hg
* Reported Jan 11 1:50 PM — Jan 26 1:50 PM, Ipswich, Weather by CustomWeather, © 2014

Note: Actual official high and low records may vary slightly from our data, if they occured in-between our weather recording intervals... More about our weather records

Advertising

Ipswich weather history for previous 24 hours

 ConditionsComfort  
Time TempWeatherWind HumidityBarometerVisibility
1:50 PM
Jan 26
45 °FPartly sunny.17 mph61%30.15 "HgN/A
12:50 PM46 °FPartly sunny.17 mph62%30.15 "HgN/A
11:50 AM46 °FPartly sunny.20 mph76%30.15 "HgN/A
10:50 AM48 °FScattered clouds.15 mph87%30.12 "HgN/A
9:50 AM48 °FScattered clouds.14 mph94%30.12 "HgN/A
8:50 AM46 °FDrizzle. Partly sunny.12 mph93%30.12 "HgN/A
7:50 AM46 °FDrizzle. Mostly cloudy.13 mph93%30.09 "HgN/A
6:50 AM45 °FLight rain. Mostly cloudy.9 mph100%30.09 "HgN/A
5:50 AM45 °FOvercast.9 mph93%30.09 "HgN/A
4:50 AM45 °FPassing clouds.9 mph93%30.12 "HgN/A
3:50 AM45 °FLow clouds.10 mph93%30.12 "HgN/A
2:50 AM45 °FFog.9 mph93%30.15 "Hg6 mi
1:50 AM43 °FFog.8 mph100%30.18 "Hg4 mi
12:50 AM43 °FLight rain. Passing clouds.10 mph100%30.18 "Hg5 mi
11:50 PM
Jan 25
43 °FLow clouds.10 mph93%30.21 "HgN/A
10:50 PM43 °FLow clouds.10 mph93%30.24 "HgN/A
9:50 PM43 °FLow clouds.10 mph87%30.24 "HgN/A
8:50 PM41 °FPartly cloudy.9 mph93%30.27 "HgN/A
7:50 PM41 °FPassing clouds.8 mph93%30.27 "HgN/A
6:50 PM39 °FPassing clouds.8 mph93%30.27 "HgN/A
5:50 PM39 °FOvercast.9 mph93%30.30 "HgN/A
4:50 PM41 °FOvercast.8 mph87%30.30 "HgN/A
3:50 PM43 °FOvercast.9 mph81%30.30 "HgN/A
2:50 PM43 °FOvercast.8 mph81%30.33 "HgN/A
Weather by CustomWeather, © 2014

See weather overviewHow to use our weather pages